Location: Newark
(43.0275°N, 0.5708°E)
Time: 23:01:57
(UTC+00:00)

Envisat - Visible Passes

Search period start: 17 October 2019 00:00
Search period end: 27 October 2019 00:00
Orbit: 764 x 766 km, 98.1° (Epoch: 17 October)

Date Brightness Start Highest point End Pass type
(mag) Time Alt. Az. Time Alt. Az. Time Alt. Az.
17 Oct 3.0 17:42:16 10° SSE 17:47:15 62° ENE 17:52:17 10° N visible
17 Oct 5.9 19:23:34 10° SW 19:26:42 16° W 19:29:50 10° NW visible
18 Oct 4.7 18:45:00 10° SSW 18:49:36 35° W 18:54:16 10° NNW visible
19 Oct 3.2 18:07:39 10° S 18:12:43 78° WSW 18:17:50 10° NNW visible
20 Oct 3.2 17:31:10 10° SE 17:36:02 49° ENE 17:40:56 10° N visible
20 Oct 5.6 19:11:34 10° SW 19:15:18 21° W 19:19:05 10° NW visible
21 Oct 6.2 05:40:22 10° NE 05:43:25 16° E 05:46:27 10° SE visible
21 Oct 4.2 18:33:27 10° S 18:38:18 44° W 18:43:10 10° NNW visible
22 Oct 3.0 17:56:23 10° SSE 18:01:28 84° ENE 18:06:34 10° NNW visible
22 Oct 6.2 19:39:27 10° WSW 19:41:07 11° W 19:42:48 10° WNW visible
23 Oct 5.2 18:59:46 10° SSW 19:03:57 26° W 19:08:11 10° NW visible
24 Oct 6.5 05:29:58 10° ENE 05:32:01 12° E 05:34:02 10° ESE visible
24 Oct 3.7 18:22:00 10° S 18:26:59 56° W 18:32:00 10° NNW visible
25 Oct 3.0 17:45:11 10° SSE 17:50:13 68° ENE 17:55:16 10° N visible
25 Oct 6.0 19:26:54 10° WSW 19:29:43 15° W 19:32:33 10° NW visible
26 Oct 5.9 05:53:55 10° NE 05:57:49 22° E 06:01:40 10° SE visible
26 Oct 4.8 18:48:06 10° SSW 18:52:36 32° W 18:57:09 10° NNW visible
